Location: Kailua
(21.4020°N, 157.7390°W)
Time: 19:23:56
(UTC-10:00)

Cosmos 2297 Rocket - Visible Passes

Search period start: 26 July 2016 00:00
Search period end: 05 August 2016 00:00
Orbit: 841 x 842 km, 71.0° (Epoch: 25 July)

Date Brightness Start Highest point End Pass type
(mag) Time Alt. Az. Time Alt. Az. Time Alt. Az.
26 Jul 4.2 02:38:39 10° NNE 02:43:03 23° ENE 02:43:09 23° ENE visible
26 Jul 3.5 04:22:07 10° NW 04:24:49 23° WNW 04:24:49 23° WNW visible
27 Jul 4.4 02:23:42 10° NNE 02:26:36 20° NE 02:26:36 20° NE visible
27 Jul 4.0 04:06:56 10° NW 04:08:18 17° NW 04:08:18 17° NW visible
28 Jul 4.7 02:08:45 10° NNE 02:10:27 16° NE 02:10:27 16° NE visible
28 Jul 4.4 03:51:46 10° NW 03:52:10 12° NW 03:52:10 12° NW visible
29 Jul 5.0 01:53:49 10° NNE 01:54:34 12° NNE 01:54:34 12° NNE visible
